COSMOS 397 DEB *

Satellite information

Favourite Embed

Satellite Type and Status

DEBRISIN ORBIT

Key statistics

Satellite COSMOS 397 DEB * at a glance.

Uptime

19966

Days in orbit

Revolutions

≈ 14.0

Per day

Orbit

LEO

Low Earth Orbit

Inclination

66.8

Latest

Satellite identification and parameters

Extended collection of information and parameters for COSMOS 397 DEB *.

Object identification

Identified? True

Debris? True

Object name: COSMOS 397 DEB *

International designator: 1971-015BL

Object number (NORAD): 5414

Object ID (CCSDS): 5414

Country: COMMONWEALTH OF INDEPENDENT STATES (CIS)

Current information (Y/N): Y

RCS size: SMALL

Orbital parameters

Period: 102.642 minutes

Inclination: 66.7662 deg

SMA: 7261.779 km

Apoapsis: 939.763 km

Periapsis: 827.526 km

RAAN: 281.1665 deg

Eccentricy: 0.00772799

Argument of periapsis: 45.4605 deg

Mean anomaly: 315.2757 deg

Mean motion: 14.02937024 rev/day

Mean motion (dot): 0.0000028 rev/day2

B* drag term: 0.00022565838 1/REarth

Two-line elements (TLE)

Creation date: Oct. 25, 2025, 3:11 a.m.

Reference frame: TEME

Reference center: EARTH

Epoch: Oct. 24, 2025, 10:26 p.m. UTC

TLE line 0: 0 COSMOS 397 DEB *

TLE line 1: 1 05414U 71015BL 25297.93522490 .00000280 00000-0 22566-3 0 9991

TLE line 2: 2 05414 66.7662 281.1665 0077280 45.4605 315.2757 14.02937024792309

Live tracking on map

Real-time ground track for satellite COSMOS 397 DEB *.

In-orbit conjunctions

A list of the most updated potential collisions computed for object COSMOS 397 DEB *.

Target Orbit TCA Probability of collision Miss distance Type
FENGYUN 1C DEB SSO 2025-08-21 20:37:05 0.0001378418 390.0 (m) DEBRIS

Associated space launch

The I2P satellites were the first soviet coorbital ASAT system.

COSMOS 397 DEB * was lifted into orbit during the mission ‘Tsiklon-2 | I2P 6’, on board a Tsiklon-2 space rocket.

The launch took place on Feb. 25, 1971, 11:11 a.m. from 90/20.

For more information about the launch, click the button.

Launch to space Tsiklon-2 | I2P 6
Tsiklon-2 | I2P 6

Agency: N/A

Status: Launch Successful

Launch date: Feb. 25, 1971, 11:11 a.m. UTC

Rocket: Tsiklon-2

Launch pad: 90/20

Location: Baikonur Cosmodrome, Republic of Kazakhstan

...

Latest news about this satellite

There are no fresh news available about this satellite. Check back as we update our databases every day.


Newsletter sign-up

Weekly statistics, charts and insights to help you stay on top of the space industry.